This demonstration page uses our WeatherBlox Daily Observations layout. Learn more.

Left ArrowRight Arrow

Hourly Observations for November 6, 2021

Temp ( °F °C ) Dew Point ( °F °C ) Humidity (%) Winds ( mph kmh ) Pressure ( in mb ) Visibility ( mi km ) Precip ( " mm )
12:56 am 00:56 Clear 46 7.8 41 5 83 83 SSW 9 15 30.06 1018 10 16 0.00 0.00
1:56 am 01:56 Clear 45 7.2 41 5 86 86 SW 14 22 30.05 1018 10 16 0.00 0.00
2:56 am 02:56 Clear 45 7.2 41 5 86 86 SW 10 17 30.05 1018 10 16 0.00 0.00
3:56 am 03:56 Clear 44 6.7 40 4.4 85 85 SW 7 11 30.06 1018 10 16 0.00 0.00
4:56 am 04:56 Clear 43 6.1 40 4.4 89 89 WSW 9 15 30.05 1018 10 16 0.00 0.00
5:56 am 05:56 Clear 42 5.6 39 3.9 89 89 SW 6 9 30.06 1018 10 16 0.00 0.00
6:56 am 06:56 Clear 39 3.9 36 2.2 89 89 WSW 3 6 30.07 1018 10 16 0.00 0.00
7:56 am 07:56 Clear 39 3.9 36 2.2 89 89 Calm 30.07 1018 10 16 0.00 0.00
8:56 am 08:56 Sunny 40 4.4 35 1.7 83 83 SW 5 7 30.09 1019 10 16 0.00 0.00
9:56 am 09:56 Sunny 45 7.2 39 3.9 80 80 SSW 8 13 30.09 1019 10 16 0.00 0.00
10:56 am 10:56 Sunny 50 10 41 5 71 71 SW 6 9 30.08 1019 10 16 0.00 0.00
11:56 am 11:56 Sunny 60 15.6 45 7.2 58 58 S 8 13 30.07 1018 10 16 0.00 0.00
12:56 pm 12:56 Sunny 66 18.9 46 7.8 49 49 S 10 17 30.04 1017 10 16 0.00 0.00
1:56 pm 13:56 Sunny 68 20 44 6.7 42 42 SSW 15 24 30.01 1016 10 16 0.00 0.00
2:56 pm 14:56 Sunny 70 21.1 45 7.2 41 41 S 14 22 29.98 1015 10 16 0.00 0.00
3:56 pm 15:56 Sunny 72 22.2 44 6.7 37 37 S 16 26 29.94 1014 10 16 0.00 0.00
4:56 pm 16:56 Sunny 71 21.7 46 7.8 41 41 S 14 22 29.95 1014 10 16 0.00 0.00
5:56 pm 17:56 Sunny 65 18.3 47 8.3 52 52 S 9 15 29.96 1015 10 16 0.00 0.00
6:56 pm 18:56 Clear 58 14.4 45 7.2 62 62 SSE 9 15 29.98 1015 10 16 0.00 0.00
7:56 pm 19:56 Clear 54 12.2 45 7.2 72 72 SSE 8 13 29.98 1015 10 16 0.00 0.00
8:56 pm 20:56 Clear 54 12.2 46 7.8 75 75 S 10 17 29.97 1015 10 16 0.00 0.00
9:56 pm 21:56 Clear 55 12.8 47 8.3 74 74 S 13 20 29.96 1015 10 16 0.00 0.00
10:56 pm 22:56 Clear 52 11.1 46 7.8 80 80 S 13 20 29.97 1015 10 16 0.00 0.00
11:56 pm 23:56 Clear 50 10 46 7.8 86 86 S 10 17 29.95 1014 10 16 0.00 0.00

Powered by AerisWeather